Погода в Григорьевке

Россия / Оренбургская область     51°06′18″N   55°18′08″E
темп.,
°C
ветер,
м/с
пор.,
м/с
влажн.,
%
обл.,
%
осадки,
мм/ч
давл.,
гПа
погр.,
м
13 августа, сб
сб1323:00+21ссв511405 0.0 1020256
02:00+19ссв410520 0.0 1020224
05:00+17с38590 0.0 1019132
08:00+19ссв48530 0.0 1020270
11:00+25ссв56340 0.0 1019958
14:00+29ссв55250 0.0 10181601
17:00+30с55212 0.0 10171886
20:00+27с46326 0.0 1016120
14 августа, вс
вс1423:00+22с474717 0.0 1017123
02:00+21св49567 0.0 1017160
05:00+19св48620 0.0 1017142
08:00+21св58570 0.0 1017298
11:00+27всв66410 0.0 10161089
14:00+30св55310 0.0 10152014
17:00+31св55260 0.0 10142423
20:00+28ссв473412 0.0 1013148
15 августа, пн
пн1523:00+23ссв7113949 0.0 1015301
02:00+20св4848100 0.0 1015164
05:00+20всв6123882 0.0 1015396
08:00+21в71437100 0.0 1016557
11:00+26в9113079 0.0 1017892
14:00+28в9102614 0.0 10171447
17:00+29всв910245 0.0 10161624
20:00+25всв812270 0.0 1017535
16 августа, вт
вт1623:00+22в614280 0.0 1018404
02:00+20в614360 0.0 1019357
05:00+18всв512420 0.0 1020241
08:00+20в611400 0.0 1021360
11:00+26в79270 0.0 10211398
14:00+29в77210 0.0 10201931
17:00+29всв65200 0.0 10192106
20:00+25всв48270 0.0 1020150
17 августа, ср
ср1723:00+21в46315 0.0 102080
02:00+19св34400 0.0 102142
05:00+17всв33440 0.0 102223
08:00+20в34380 0.0 1022131
11:00+27в44255 0.0 1022987
14:00+29всв32220 0.0 10212349
17:00+30св32200 0.0 10202668
20:00+28в452437 0.0 101856